Overview Statistics Trail Chart Weather Telemetry Raw packets
 

This is the latest recevied weather packets stored in our database for station/object KBTL-WX. If no packets are shown the sender has not sent any weather packets the latest 10 day(s).

<< 17 18 19 20 21 22 23 >>
Time Temp. Humidity Pressure Rain* Wind** Luminosity Snow
1777549514 3.89° C 90% 981.5 hPa 0 mm - - -
1777548632 3.33° C 92% 982.4 hPa 0 mm - - -
1777547712 3.33° C 92% 982.4 hPa 0 mm - - -
1777546835 3.33° C 92% 982.4 hPa 0 mm - - -
1777545912 3.33° C 92% 981.7 hPa 0 mm - - -
1777545030 3.33° C 91% 982.5 hPa 0 mm - - -
1777544113 3.33° C 91% 982.5 hPa 0 mm - - -
1777543235 3.89° C 91% 982.9 hPa 0 mm - - -
1777542312 3.89° C 91% 982.6 hPa 0 mm - - -
1777541429 3.33° C 91% 982.5 hPa 0 mm - - -
1777540512 3.89° C 91% 982.5 hPa 0 mm - - -
1777539633 3.89° C 91% 982.5 hPa 0 mm - - -
1777538712 3.89° C 85% 981.6 hPa 0 mm - - -
1777537832 4.44° C 87% 981.8 hPa 0 mm - - -
1777536912 5° C 87% 981.8 hPa 0 mm - - -
1777536038 5° C 91% 981.8 hPa 0 mm - - -
1777535113 5° C 92% 981.4 hPa 0 mm - - -
1777534231 5° C 92% 981.4 hPa 0 mm - - -
1777533312 5° C 92% 981.4 hPa 0 mm - - -
1777532436 5° C 92% 981.4 hPa 0 mm - - -
1777531512 5° C 90% 982.1 hPa 0 mm - - -
1777530631 5° C 90% 981.6 hPa 0 mm - - -
1777529712 5° C 90% 981.6 hPa 0 mm - - -
1777528841 5° C 90% 981.6 hPa 0 mm - - -
1777527912 5.56° C 91% 980.8 hPa 0.25 mm - - -

* Rain latest hour (hover to see other rain measurements)
** Current wind speed in m/s (hover to see current wind gust speed)